Regional Weather Roundup
Issued by NWS

Home | Current Version | Previous Version | Graphics & Text | Print | Product List | Glossary On
Versions: 1 2 3 4 5 6 7 8 9 10 11 12 13 14 15 16 17 18 19 20 21 22 23 24 25 26 27 28 29 30 31 32 33 34 35 36 37 38 39 40 41 42 43 44 45 46 47 48 49 50
000
ASUS44 KMEG 301100
RWRTN
TENNESSEE HOURLY STATE WEATHER ROUNDUP
NATIONAL WEATHER SERVICE MEMPHIS TN
600 AM CDT THU JUL 30 2015

TNZ002-004-019-021-049-052-054-088>092-301200-
WEST TENNESSEE

CITY           SKY/WX    TMP DP  RH WIND       PRES   REMARKS
MEMPHIS INTL   PTCLDY    81  75  82 N8        30.05R
NWS MEMPHIS      N/A     80 N/A N/A MISG        N/A
JACKSON        PTCLDY    78  74  87 N8        30.06R
DYERSBURG        N/A    N/A N/A N/A MISG        N/A
PARIS          PTCLDY    72  64  78 N7        30.09R
$$

TNZ008-025-027-028-033-062-065-066-301200-
NORTH MIDDLE TENNESSEE

CITY           SKY/WX    TMP DP  RH WIND       PRES   REMARKS
NASHVILLE      MOCLDY    77  72  84 N13       30.05R
CLARKSVILLE    CLOUDY    73  66  78 N6        30.08R
CROSSVILLE     CLOUDY    73  67  81 N5        30.08R
$$

TNZ061-075-076-078-094-096-097-301200-
SOUTH MIDDLE TENNESSEE

CITY           SKY/WX    TMP DP  RH WIND       PRES   REMARKS
FAYETTEVILLE   CLEAR     73  73 100 N6        30.04R
TULLAHOMA      CLOUDY    73  70  88 N6        30.06R
WINCHESTER     MOCLDY    72  72 100 N5        30.05R
MCMINNVILLE    CLOUDY    73  73 100 CALM      30.05S
COLUMBIA       MOCLDY    75  75 100 VRB3      30.04R
SHELBYVILLE    CLOUDY    75  73  94 CALM      30.05R
$$

TNZ017-018-042-046-047-301200-
NORTHEAST TENNESSEE

CITY           SKY/WX    TMP DP  RH WIND       PRES   REMARKS
TRI CITIES     PTCLDY    72  70  93 CALM      30.03R FOG
ELIZABETHTON   SUNNY     70  68  94 CALM      30.04R FOG
$$

TNZ012-013-036-069-073-074-301200-
CENTRAL EAST TENNESSEE

CITY           SKY/WX    TMP DP  RH WIND       PRES   REMARKS
KNOXVILLE      PTCLDY    77  73  87 CALM      30.01R
OAK RIDGE      CLEAR     75  71  87 CALM      30.03R
GATLINBURG     MOSUNNY   73  70  88 CALM      30.01R
$$

TNZ083-085-099-301200-
SOUTHEAST TENNESSEE

CITY           SKY/WX    TMP DP  RH WIND       PRES   REMARKS
CHATTANOOGA    PTCLDY    76  70  82 CALM      30.00R
$$

SKY/WX REPORTED AS FAIR MEANS FEW OR NO CLOUDS BELOW
12 THOUSAND FEET.




USA.gov is the U.S. government's official web portal to all federal, state and local government web resources and services.